Location: Lassen National Park
(40.5158°N, 121.4639°W)
Time: 20:27:34
(UTC-07:00)

Envisat - Visible Passes

Search period start: 18 March 2019 00:00
Search period end: 28 March 2019 00:00
Orbit: 764 x 766 km, 98.2° (Epoch: 18 March)

Date Brightness Start Highest point End Pass type
(mag) Time Alt. Az. Time Alt. Az. Time Alt. Az.
18 Mar 5.5 20:48:34 10° SW 20:52:26 22° W 20:56:19 10° NW visible
19 Mar 4.1 20:10:34 10° S 20:15:28 48° W 20:20:23 10° NNW visible
20 Mar 6.1 21:16:21 10° WSW 21:18:15 12° W 21:20:08 10° WNW visible
21 Mar 5.2 20:36:51 10° SSW 20:41:07 27° W 20:45:27 10° NW visible
22 Mar 3.6 19:59:12 10° S 20:04:13 62° W 20:09:16 10° NNW visible
23 Mar 5.9 21:03:55 10° SW 21:06:54 16° W 21:09:53 10° NW visible
24 Mar 4.7 20:25:15 10° SSW 20:29:51 35° W 20:34:29 10° NNW visible
25 Mar 3.2 19:47:55 10° S 19:52:59 79° WSW 19:58:06 10° NNW visible
26 Mar 5.7 20:51:55 10° SW 20:55:34 20° W 20:59:15 10° NW visible
27 Mar 4.3 20:13:45 10° S 20:18:34 44° W 20:23:26 10° NNW visible
